QPF
0.08 0.07 0.06 0.07 0.06 0.07 0.10 0.11 0.08 0.07 0.05 0.04 0.03 0.02 0.04 0.04 0.03 0.03 0.04 0.04 0.04 0.03 0.05 0.05 0.05 0.05 0.07 0.07 0.06 0.05 0.05 0.05 0.04 0.02 0.02 0.02 0.02 0.02 0.02 0.02 0.01 0.02 0.02
0.07 0.07 0.07 0.07 0.07 0.08 0.08 0.08 0.07 0.08 0.07 0.05 0.04 0.02 0.04 0.04 0.03 0.04 0.03 0.04 0.03 0.03 0.04 0.05 0.05 0.07 0.07 0.07 0.07 0.07 0.07 0.05 0.03 0.01 0.01 0.01 0.01 0.02 0.02 0.03 0.02 0.02 0.02
0.05 0.06 0.07 0.07 0.07 0.06 0.07 0.08 0.07 0.08 0.08 0.06 0.04 0.03 0.02 0.03 0.03 0.03 0.04 0.04 0.03 0.02 0.03 0.03 0.06 0.06 0.06 0.07 0.06 0.07 0.07 0.04 0.02 0.01 0.01 0.02 0.02 0.03 0.02 0.02 0.03 0.03 0.02
0.04 0.07 0.07 0.07 0.07 0.07 0.07 0.06 0.07 0.09 0.09 0.08 0.06 0.04 0.01 0.02 0.02 0.02 0.02 0.03 0.04 0.02 0.04 0.03 0.06 0.06 0.08 0.09 0.09 0.08 0.07 0.05 0.04 0.03 0.02 0.02 0.03 0.02 0.03 0.02 0.02 0.03 0.02
0.04 0.06 0.07 0.08 0.07 0.06 0.06 0.05 0.06 0.08 0.08 0.08 0.06 0.05 0.02 0.03 0.02 0.02 0.02 0.02 0.02 0.03 0.04 0.03 0.05 0.05 0.06 0.10 0.11 0.09 0.07 0.06 0.04 0.03 0.02 0.02 0.02 0.02 0.02 0.02 0.02 0.02 0.02
0.03 0.05 0.06 0.07 0.06 0.06 0.07 0.07 0.08 0.08 0.06 0.05 0.03 0.03 0.03 0.03 0.02 0.03 0.02 0.02 0.03 0.02 0.04 0.06 0.08 0.07 0.05 0.05 0.07 0.09 0.11 0.11 0.09 0.07 0.05 0.04 0.04 0.04 0.03 0.03 0.03 0.02 0.02
0.04 0.06 0.05 0.07 0.07 0.06 0.07 0.07 0.08 0.07 0.05 0.04 0.04 0.05 0.03 0.01 0.01 0.01 0.01 0.02 0.02 0.04 0.06 0.07 0.07 0.07 0.06 0.05 0.05 0.07 0.08 0.11 0.13 0.12 0.10 0.09 0.09 0.08 0.07 0.05 0.04 0.04 0.03
0.04 0.05 0.07 0.06 0.06 0.07 0.07 0.07 0.07 0.07 0.06 0.04 0.05 0.06 0.05 0.04 0.02 0.01 0.01 0.01 0.01 0.02 0.03 0.03 0.04 0.06 0.06 0.07 0.06 0.04 0.04 0.05 0.09 0.11 0.12 0.10 0.10 0.10 0.08 0.08 0.06 0.05 0.05
0.03 0.04 0.05 0.06 0.06 0.07 0.08 0.09 0.07 0.07 0.08 0.06 0.05 0.07 0.08 0.09 0.07 0.03 0.02 0.02 0.03 0.04 0.03 0.02 0.02 0.03 0.04 0.05 0.07 0.04 0.02 0.02 0.04 0.07 0.09 0.10 0.11 0.09 0.09 0.10 0.10 0.10 0.09
0.01 0.03 0.03 0.04 0.05 0.05 0.08 0.08 0.06 0.08 0.08 0.08 0.06 0.05 0.05 0.06 0.08 0.07 0.04 0.03 0.03 0.03 0.03 0.02 0.02 0.03 0.04 0.05 0.05 0.02 0.03 0.02 0.03 0.04 0.05 0.07 0.08 0.07 0.07 0.08 0.11 0.10 0.09
0.01 0.01 0.02 0.03 0.05 0.04 0.06 0.07 0.07 0.08 0.07 0.08 0.08 0.08 0.09 0.07 0.07 0.06 0.06 0.06 0.04 0.03 0.03 0.02 0.01 0.02 0.02 0.03 0.03 0.02 0.03 0.02 0.02 0.02 0.02 0.03 0.04 0.04 0.06 0.08 0.09 0.10 0.08
0.02 0.01 0.02 0.04 0.04 0.04 0.06 0.07 0.07 0.07 0.08 0.08 0.09 0.09 0.10 0.08 0.07 0.06 0.05 0.06 0.05 0.03 0.02 0.03 0.02 0.03 0.03 0.02 0.02 0.02 0.02 0.01 0.01 0.01 0.01 0.02 0.01 0.02 0.03 0.05 0.07 0.08 0.08
0.04 0.03 0.03 0.04 0.04 0.05 0.05 0.06 0.06 0.06 0.07 0.08 0.08 0.08 0.07 0.07 0.07 0.07 0.07 0.07 0.05 0.03 0.02 0.02 0.02 0.03 0.02 0.02 0.03 0.01 0.01 0.02 0.02 0.03 0.03 0.03 0.04 0.04 0.05 0.06 0.07 0.08 0.08
0.05 0.04 0.03 0.04 0.05 0.05 0.05 0.06 0.06 0.05 0.06 0.07 0.07 0.08 0.07 0.06 0.06 0.05 0.06 0.07 0.06 0.05 0.03 0.03 0.01 0.01 0.02 0.03 0.03 0.02 0.01 0.01 0.01 0.02 0.02 0.01 0.01 0.02 0.02 0.03 0.05 0.06 0.05
0.04 0.02 0.02 0.03 0.04 0.04 0.06 0.06 0.06 0.05 0.06 0.06 0.06 0.07 0.06 0.06 0.05 0.05 0.05 0.05 0.06 0.05 0.05 0.03 0.03 0.02 0.02 0.02 0.02 0.02 0.02 0.02 0.01 0.01 0.01 0.00 0.00 0.00 0.01 0.01 0.01 0.02 0.04
0.04 0.03 0.03 0.03 0.03 0.03 0.05 0.05 0.05 0.05 0.06 0.06 0.05 0.05 0.05 0.04 0.04 0.05 0.04 0.05 0.05 0.04 0.04 0.02 0.03 0.03 0.02 0.01 0.01 0.01 0.02 0.02 0.01 0.01 0.00 0.00 0.00 0.00 0.00 0.01 0.01 0.01 0.02
0.04 0.03 0.03 0.02 0.02 0.02 0.03 0.04 0.04 0.04 0.04 0.05 0.04 0.04 0.04 0.04 0.04 0.04 0.04 0.04 0.04 0.04 0.04 0.03 0.02 0.02 0.03 0.03 0.02 0.02 0.01 0.01 0.01 0.01 0.01 0.01 0.00 0.00 0.00 0.01 0.01 0.01 0.01
0.03 0.03 0.03 0.03 0.03 0.03 0.04 0.04 0.04 0.05 0.05 0.04 0.04 0.05 0.05 0.05 0.05 0.04 0.04 0.04 0.04 0.04 0.03 0.03 0.03 0.02 0.03 0.03 0.03 0.02 0.01 0.01 0.00 0.01 0.01 0.01 0.01 0.01 0.01 0.01 0.02 0.01 0.01
0.01 0.02 0.02 0.02 0.03 0.03 0.03 0.03 0.03 0.04 0.05 0.04 0.05 0.04 0.04 0.05 0.04 0.04 0.04 0.04 0.03 0.03 0.03 0.03 0.03 0.04 0.04 0.04 0.03 0.02 0.02 0.02 0.02 0.03 0.03 0.02 0.02 0.02 0.02 0.02 0.02 0.02 0.02
0.01 0.01 0.01 0.02 0.02 0.02 0.03 0.02 0.02 0.03 0.03 0.03 0.03 0.03 0.04 0.04 0.04 0.05 0.04 0.05 0.04 0.04 0.04 0.03 0.03 0.03 0.03 0.04 0.04 0.03 0.04 0.04 0.03 0.02 0.03 0.03 0.04 0.04 0.04 0.04 0.03 0.02 0.02
0.01 0.01 0.01 0.02 0.02 0.02 0.01 0.02 0.01 0.01 0.02 0.03 0.04 0.03 0.03 0.04 0.05 0.04 0.03 0.04 0.05 0.05 0.04 0.04 0.04 0.03 0.03 0.04 0.04 0.04 0.04 0.06 0.06 0.06 0.06 0.05 0.05 0.05 0.05 0.05 0.04 0.03 0.02
0.02 0.01 0.01 0.02 0.02 0.01 0.02 0.02 0.02 0.03 0.02 0.03 0.03 0.02 0.02 0.03 0.03 0.04 0.03 0.03 0.04 0.04 0.04 0.04 0.04 0.03 0.03 0.04 0.06 0.06 0.07 0.09 0.09 0.08 0.08 0.08 0.07 0.07 0.06 0.04 0.04 0.04 0.03
0.06 0.04 0.03 0.03 0.02 0.03 0.03 0.02 0.02 0.02 0.02 0.02 0.02 0.02 0.02 0.02 0.04 0.04 0.04 0.02 0.02 0.02 0.03 0.04 0.04 0.04 0.06 0.06 0.06 0.05 0.05 0.06 0.06 0.06 0.07 0.08 0.07 0.07 0.05 0.03 0.02 0.03 0.03
0.05 0.08 0.10 0.09 0.06 0.04 0.04 0.03 0.03 0.03 0.02 0.02 0.02 0.02 0.02 0.03 0.04 0.05 0.05 0.03 0.02 0.02 0.03 0.03 0.04 0.05 0.05 0.05 0.05 0.04 0.04 0.03 0.02 0.03 0.03 0.04 0.04 0.04 0.03 0.03 0.02 0.02 0.02
0.04 0.07 0.08 0.07 0.06 0.04 0.03 0.02 0.02 0.02 0.02 0.02 0.03 0.02 0.03 0.03 0.03 0.05 0.05 0.04 0.03 0.02 0.03 0.03 0.03 0.04 0.04 0.04 0.04 0.03 0.02 0.02 0.02 0.01 0.02 0.02 0.02 0.02 0.02 0.02 0.02 0.02 0.02
0.12 0.11 0.06 0.03 0.01 0.01 0.02 0.02 0.02 0.02 0.02 0.03 0.03 0.03 0.03 0.03 0.03 0.04 0.03 0.03 0.02 0.02 0.03 0.02 0.02 0.03 0.03 0.03 0.03 0.03 0.03 0.03 0.03 0.03 0.02 0.02 0.01 0.02 0.01 0.02 0.01 0.02 0.02
MSLP
1012.90 1013.12 1013.32 1013.54 1013.82 1014.18 1014.63 1015.17 1015.75 1016.30 1016.75 1017.06 1017.18 1017.14 1016.97 1016.75 1016.55 1016.44 1016.48 1016.67 1016.98 1017.37 1017.77 1018.12 1018.40 1018.57 1018.65 1018.69 1018.71 1018.75 1018.85 1018.99 1019.16 1019.36 1019.54 1019.69 1019.80 1019.87 1019.92 1019.96 1020.01 1020.07 1020.15
1012.65 1012.88 1013.10 1013.35 1013.67 1014.07 1014.58 1015.17 1015.80 1016.39 1016.87 1017.17 1017.28 1017.20 1016.97 1016.67 1016.37 1016.18 1016.13 1016.24 1016.51 1016.88 1017.29 1017.68 1018.00 1018.23 1018.37 1018.45 1018.50 1018.56 1018.65 1018.77 1018.93 1019.11 1019.28 1019.42 1019.53 1019.61 1019.67 1019.72 1019.78 1019.86 1019.95
1012.48 1012.71 1012.95 1013.23 1013.58 1014.02 1014.57 1015.20 1015.85 1016.46 1016.95 1017.26 1017.35 1017.24 1016.95 1016.58 1016.19 1015.90 1015.75 1015.79 1015.99 1016.32 1016.73 1017.14 1017.50 1017.78 1017.98 1018.10 1018.19 1018.26 1018.35 1018.47 1018.60 1018.75 1018.90 1019.02 1019.12 1019.19 1019.26 1019.32 1019.40 1019.50 1019.61
1012.36 1012.60 1012.86 1013.16 1013.53 1013.99 1014.55 1015.19 1015.86 1016.48 1016.97 1017.27 1017.36 1017.22 1016.90 1016.47 1016.02 1015.64 1015.41 1015.36 1015.49 1015.76 1016.13 1016.53 1016.91 1017.23 1017.47 1017.63 1017.75 1017.85 1017.94 1018.04 1018.16 1018.28 1018.39 1018.48 1018.56 1018.62 1018.68 1018.75 1018.84 1018.96 1019.10
1012.29 1012.54 1012.81 1013.11 1013.49 1013.95 1014.51 1015.13 1015.78 1016.39 1016.87 1017.17 1017.26 1017.12 1016.80 1016.35 1015.87 1015.44 1015.14 1015.00 1015.04 1015.24 1015.55 1015.91 1016.28 1016.60 1016.86 1017.05 1017.20 1017.31 1017.41 1017.50 1017.59 1017.68 1017.76 1017.82 1017.86 1017.91 1017.95 1018.02 1018.12 1018.26 1018.43
1012.26 1012.52 1012.79 1013.09 1013.45 1013.89 1014.41 1015.00 1015.61 1016.18 1016.64 1016.94 1017.05 1016.94 1016.65 1016.23 1015.75 1015.30 1014.96 1014.75 1014.71 1014.81 1015.03 1015.32 1015.63 1015.93 1016.18 1016.39 1016.55 1016.68 1016.78 1016.87 1016.95 1017.00 1017.04 1017.07 1017.08 1017.09 1017.12 1017.18 1017.29 1017.44 1017.63
1012.24 1012.51 1012.78 1013.07 1013.41 1013.81 1014.28 1014.80 1015.35 1015.87 1016.31 1016.61 1016.74 1016.69 1016.46 1016.10 1015.68 1015.25 1014.88 1014.62 1014.49 1014.50 1014.60 1014.79 1015.02 1015.26 1015.48 1015.68 1015.85 1015.99 1016.10 1016.19 1016.26 1016.29 1016.30 1016.28 1016.26 1016.24 1016.25 1016.30 1016.40 1016.56 1016.75
1012.22 1012.50 1012.77 1013.06 1013.37 1013.73 1014.13 1014.58 1015.05 1015.51 1015.92 1016.22 1016.39 1016.40 1016.26 1016.00 1015.65 1015.27 1014.91 1014.61 1014.40 1014.30 1014.29 1014.35 1014.48 1014.64 1014.81 1014.98 1015.15 1015.30 1015.43 1015.52 1015.58 1015.60 1015.58 1015.54 1015.48 1015.43 1015.41 1015.44 1015.54 1015.69 1015.90
1012.18 1012.47 1012.75 1013.03 1013.33 1013.64 1013.98 1014.36 1014.76 1015.15 1015.52 1015.82 1016.03 1016.11 1016.07 1015.91 1015.65 1015.34 1015.00 1014.68 1014.41 1014.20 1014.07 1014.01 1014.02 1014.09 1014.20 1014.34 1014.50 1014.66 1014.80 1014.91 1014.97 1014.99 1014.95 1014.88 1014.79 1014.72 1014.68 1014.69 1014.78 1014.93 1015.13
1012.09 1012.39 1012.69 1012.99 1013.28 1013.56 1013.86 1014.17 1014.50 1014.83 1015.16 1015.45 1015.68 1015.83 1015.88 1015.82 1015.66 1015.42 1015.12 1014.79 1014.47 1014.18 1013.94 1013.76 1013.66 1013.63 1013.68 1013.78 1013.93 1014.09 1014.25 1014.38 1014.45 1014.47 1014.43 1014.35 1014.25 1014.16 1014.10 1014.10 1014.17 1014.32 1014.51
1011.92 1012.25 1012.59 1012.91 1013.21 1013.49 1013.76 1014.02 1014.29 1014.57 1014.85 1015.12 1015.36 1015.55 1015.67 1015.70 1015.63 1015.46 1015.20 1014.88 1014.53 1014.17 1013.84 1013.56 1013.37 1013.26 1013.24 1013.31 1013.44 1013.61 1013.78 1013.93 1014.03 1014.06 1014.03 1013.95 1013.84 1013.74 1013.68 1013.67 1013.74 1013.88 1014.06
1011.69 1012.05 1012.41 1012.77 1013.10 1013.40 1013.67 1013.90 1014.13 1014.35 1014.59 1014.83 1015.06 1015.27 1015.43 1015.51 1015.51 1015.40 1015.19 1014.89 1014.53 1014.13 1013.74 1013.39 1013.12 1012.95 1012.88 1012.91 1013.03 1013.19 1013.38 1013.54 1013.65 1013.71 1013.69 1013.63 1013.53 1013.44 1013.39 1013.39 1013.46 1013.60 1013.78
1011.38 1011.77 1012.18 1012.59 1012.96 1013.29 1013.56 1013.78 1013.98 1014.15 1014.34 1014.53 1014.73 1014.93 1015.10 1015.22 1015.27 1015.21 1015.05 1014.78 1014.43 1014.03 1013.61 1013.22 1012.90 1012.68 1012.57 1012.57 1012.66 1012.81 1012.99 1013.17 1013.30 1013.37 1013.38 1013.33 1013.26 1013.20 1013.16 1013.19 1013.27 1013.41 1013.60
1011.03 1011.45 1011.90 1012.35 1012.77 1013.13 1013.42 1013.64 1013.80 1013.94 1014.06 1014.19 1014.35 1014.51 1014.67 1014.80 1014.87 1014.86 1014.75 1014.52 1014.21 1013.83 1013.42 1013.02 1012.68 1012.42 1012.27 1012.24 1012.30 1012.43 1012.60 1012.77 1012.90 1012.99 1013.02 1013.01 1012.97 1012.94 1012.94 1012.98 1013.09 1013.25 1013.44
1010.66 1011.10 1011.59 1012.08 1012.53 1012.92 1013.23 1013.44 1013.58 1013.67 1013.73 1013.79 1013.88 1013.99 1014.12 1014.24 1014.34 1014.36 1014.29 1014.13 1013.87 1013.54 1013.16 1012.78 1012.44 1012.17 1011.99 1011.92 1011.94 1012.03 1012.17 1012.31 1012.44 1012.53 1012.58 1012.60 1012.59 1012.59 1012.63 1012.70 1012.83 1013.01 1013.22
1010.30 1010.76 1011.27 1011.78 1012.26 1012.66 1012.97 1013.17 1013.28 1013.32 1013.32 1013.31 1013.33 1013.38 1013.47 1013.57 1013.67 1013.73 1013.72 1013.63 1013.44 1013.18 1012.86 1012.51 1012.19 1011.91 1011.71 1011.59 1011.57 1011.61 1011.70 1011.81 1011.91 1011.99 1012.04 1012.07 1012.09 1012.12 1012.18 1012.28 1012.43 1012.63 1012.85
1009.95 1010.42 1010.94 1011.45 1011.94 1012.34 1012.64 1012.83 1012.91 1012.89 1012.83 1012.75 1012.70 1012.69 1012.73 1012.82 1012.92 1013.01 1013.06 1013.04 1012.94 1012.76 1012.51 1012.22 1011.93 1011.65 1011.43 1011.28 1011.19 1011.18 1011.21 1011.26 1011.32 1011.38 1011.41 1011.44 1011.46 1011.50 1011.56 1011.67 1011.84 1012.05 1012.29
1009.60 1010.07 1010.58 1011.10 1011.57 1011.96 1012.24 1012.40 1012.44 1012.39 1012.27 1012.14 1012.03 1011.97 1011.97 1012.04 1012.15 1012.27 1012.38 1012.43 1012.42 1012.32 1012.15 1011.92 1011.66 1011.40 1011.17 1010.98 1010.84 1010.76 1010.73 1010.72 1010.73 1010.74 1010.74 1010.73 1010.73 1010.75 1010.80 1010.90 1011.06 1011.27 1011.52
1009.22 1009.69 1010.19 1010.68 1011.13 1011.50 1011.76 1011.89 1011.91 1011.82 1011.66 1011.49 1011.34 1011.24 1011.23 1011.28 1011.40 1011.55 1011.71 1011.83 1011.89 1011.87 1011.77 1011.61 1011.39 1011.15 1010.91 1010.70 1010.52 1010.39 1010.29 1010.22 1010.17 1010.11 1010.06 1010.01 1009.96 1009.94 1009.95 1010.01 1010.13 1010.32 1010.58
1008.77 1009.24 1009.72 1010.19 1010.62 1010.96 1011.19 1011.31 1011.30 1011.19 1011.03 1010.84 1010.67 1010.57 1010.54 1010.59 1010.72 1010.90 1011.09 1011.26 1011.38 1011.42 1011.39 1011.28 1011.11 1010.90 1010.67 1010.44 1010.24 1010.07 1009.92 1009.79 1009.67 1009.56 1009.44 1009.33 1009.21 1009.11 1009.06 1009.06 1009.13 1009.29 1009.54
1008.26 1008.72 1009.18 1009.63 1010.02 1010.33 1010.55 1010.65 1010.64 1010.55 1010.39 1010.22 1010.06 1009.96 1009.94 1010.00 1010.14 1010.33 1010.54 1010.74 1010.89 1010.98 1011.00 1010.94 1010.80 1010.63 1010.42 1010.20 1009.99 1009.79 1009.61 1009.44 1009.27 1009.10 1008.91 1008.72 1008.53 1008.35 1008.21 1008.13 1008.14 1008.26 1008.48
1007.71 1008.15 1008.59 1009.00 1009.36 1009.65 1009.85 1009.95 1009.97 1009.90 1009.78 1009.65 1009.54 1009.47 1009.46 1009.54 1009.67 1009.86 1010.07 1010.28 1010.44 1010.55 1010.59 1010.56 1010.47 1010.32 1010.14 1009.95 1009.75 1009.55 1009.36 1009.16 1008.95 1008.73 1008.49 1008.22 1007.95 1007.69 1007.47 1007.31 1007.26 1007.32 1007.51
1007.17 1007.59 1007.99 1008.36 1008.69 1008.96 1009.15 1009.28 1009.32 1009.31 1009.25 1009.18 1009.12 1009.10 1009.12 1009.21 1009.35 1009.52 1009.71 1009.89 1010.04 1010.14 1010.19 1010.17 1010.10 1009.98 1009.83 1009.66 1009.49 1009.31 1009.12 1008.92 1008.70 1008.44 1008.15 1007.83 1007.50 1007.17 1006.88 1006.66 1006.54 1006.55 1006.72
1006.75 1007.13 1007.49 1007.81 1008.10 1008.34 1008.54 1008.68 1008.77 1008.81 1008.83 1008.83 1008.84 1008.87 1008.94 1009.03 1009.16 1009.31 1009.46 1009.59 1009.70 1009.77 1009.79 1009.77 1009.70 1009.60 1009.48 1009.35 1009.20 1009.04 1008.88 1008.68 1008.46 1008.19 1007.88 1007.53 1007.16 1006.80 1006.46 1006.20 1006.04 1006.02 1006.15
1006.53 1006.86 1007.15 1007.43 1007.67 1007.88 1008.07 1008.23 1008.36 1008.47 1008.56 1008.64 1008.72 1008.81 1008.90 1009.00 1009.11 1009.22 1009.32 1009.39 1009.44 1009.46 1009.44 1009.39 1009.31 1009.22 1009.11 1009.00 1008.88 1008.75 1008.60 1008.43 1008.21 1007.95 1007.64 1007.30 1006.92 1006.55 1006.21 1005.93 1005.76 1005.72 1005.84
1006.55 1006.83 1007.06 1007.27 1007.46 1007.64 1007.81 1007.98 1008.15 1008.31 1008.46 1008.61 1008.75 1008.88 1009.00 1009.10 1009.19 1009.25 1009.28 1009.29 1009.27 1009.23 1009.16 1009.07 1008.97 1008.87 1008.76 1008.65 1008.54 1008.43 1008.29 1008.14 1007.94 1007.70 1007.41 1007.09 1006.75 1006.40 1006.08 1005.83 1005.67 1005.64 1005.74
Thickness
5755 5755 5754 5753 5754 5755 5754 5754 5755 5755 5755 5755 5756 5756 5755 5755 5755 5755 5754 5750 5748 5747 5746 5745 5744 5742 5741 5739 5738 5737 5735 5734 5733 5732 5731 5730 5729 5728 5727 5726 5725 5724 5723
5755 5754 5754 5753 5755 5755 5756 5755 5755 5755 5755 5756 5756 5756 5756 5756 5755 5754 5755 5753 5750 5748 5747 5746 5745 5744 5742 5740 5739 5738 5736 5735 5733 5732 5731 5730 5729 5728 5727 5726 5726 5725 5723
5755 5754 5755 5755 5756 5756 5755 5755 5755 5755 5755 5756 5756 5756 5757 5756 5757 5756 5756 5756 5755 5752 5750 5748 5747 5745 5743 5742 5740 5738 5737 5736 5734 5733 5732 5731 5730 5729 5728 5726 5726 5725 5724
5756 5755 5755 5756 5755 5756 5756 5756 5756 5755 5755 5755 5756 5757 5759 5758 5757 5757 5757 5757 5757 5757 5754 5750 5748 5747 5745 5743 5742 5740 5738 5737 5735 5734 5733 5732 5730 5729 5728 5727 5726 5725 5724
5758 5757 5757 5757 5756 5757 5757 5757 5757 5756 5754 5754 5757 5758 5760 5760 5759 5759 5760 5759 5758 5757 5756 5753 5751 5749 5747 5745 5743 5741 5740 5738 5737 5735 5734 5733 5731 5730 5729 5727 5726 5725 5724
5760 5759 5759 5758 5758 5758 5757 5756 5755 5755 5755 5755 5759 5759 5760 5762 5761 5761 5761 5761 5760 5759 5758 5757 5754 5751 5749 5747 5745 5743 5741 5740 5738 5737 5735 5734 5733 5731 5730 5728 5727 5726 5724
5762 5760 5761 5759 5759 5759 5757 5758 5757 5756 5756 5757 5756 5756 5760 5763 5762 5761 5762 5761 5761 5760 5758 5757 5755 5754 5752 5749 5746 5744 5742 5741 5739 5738 5736 5735 5734 5733 5731 5729 5728 5726 5725
5764 5764 5761 5761 5761 5759 5757 5757 5756 5756 5757 5758 5755 5753 5752 5755 5758 5762 5761 5760 5759 5759 5758 5757 5755 5753 5752 5751 5749 5746 5743 5741 5740 5739 5738 5736 5735 5733 5732 5731 5729 5727 5726
5767 5765 5764 5763 5762 5761 5760 5758 5757 5755 5755 5757 5758 5753 5749 5747 5753 5759 5759 5759 5757 5756 5757 5757 5755 5754 5752 5750 5749 5745 5743 5741 5739 5738 5737 5736 5735 5734 5732 5731 5730 5728 5726
5769 5768 5766 5765 5763 5764 5761 5760 5760 5757 5754 5754 5756 5756 5755 5754 5748 5749 5756 5758 5756 5754 5755 5756 5756 5753 5751 5749 5747 5744 5742 5740 5739 5738 5736 5735 5734 5733 5732 5731 5729 5728 5726
5771 5769 5767 5766 5764 5764 5763 5761 5759 5757 5757 5755 5755 5755 5753 5752 5751 5747 5746 5750 5753 5755 5754 5753 5753 5752 5751 5748 5745 5742 5740 5738 5737 5736 5735 5734 5733 5731 5730 5729 5728 5727 5726
5772 5770 5768 5766 5765 5765 5763 5761 5759 5758 5757 5755 5755 5755 5753 5751 5750 5748 5746 5746 5746 5750 5751 5751 5751 5750 5748 5746 5743 5739 5737 5735 5734 5733 5732 5731 5730 5729 5728 5727 5726 5726 5724
5773 5771 5770 5766 5765 5764 5763 5762 5760 5759 5757 5755 5754 5754 5755 5754 5753 5751 5747 5746 5746 5748 5747 5748 5748 5746 5745 5743 5739 5735 5733 5731 5730 5729 5728 5727 5726 5725 5724 5724 5723 5723 5722
5774 5772 5769 5767 5766 5765 5764 5762 5762 5760 5758 5756 5755 5754 5753 5754 5753 5751 5748 5745 5742 5743 5744 5743 5745 5744 5741 5739 5735 5732 5730 5727 5726 5725 5724 5723 5722 5721 5720 5720 5719 5718 5717
5774 5772 5770 5768 5766 5765 5763 5762 5761 5759 5758 5757 5756 5754 5753 5754 5752 5751 5750 5747 5741 5737 5738 5741 5740 5740 5738 5735 5732 5730 5728 5723 5722 5720 5719 5718 5717 5716 5716 5715 5714 5713 5712
5772 5770 5769 5767 5765 5764 5763 5761 5761 5759 5757 5755 5754 5752 5750 5752 5752 5750 5748 5746 5745 5740 5737 5741 5738 5739 5735 5733 5728 5726 5724 5720 5717 5715 5714 5712 5712 5711 5710 5709 5709 5708 5707
5770 5767 5767 5766 5764 5763 5762 5760 5759 5758 5755 5754 5752 5750 5748 5748 5748 5747 5746 5744 5743 5740 5734 5737 5737 5735 5730 5727 5726 5724 5721 5719 5715 5711 5709 5708 5706 5705 5704 5703 5702 5702 5701
5768 5766 5764 5763 5763 5762 5760 5758 5756 5756 5754 5752 5751 5749 5747 5746 5743 5744 5742 5741 5739 5737 5734 5730 5730 5730 5726 5724 5721 5720 5719 5717 5713 5708 5705 5703 5701 5700 5698 5697 5696 5695 5695
5765 5764 5762 5761 5760 5759 5757 5756 5754 5753 5752 5751 5749 5747 5745 5743 5740 5740 5738 5737 5736 5735 5731 5728 5727 5726 5723 5721 5717 5715 5715 5712 5711 5705 5701 5698 5696 5694 5692 5691 5690 5689 5688
5762 5761 5759 5759 5757 5756 5754 5753 5751 5750 5749 5748 5746 5745 5743 5741 5738 5736 5734 5732 5731 5729 5726 5725 5723 5721 5718 5716 5713 5710 5708 5707 5706 5704 5698 5695 5691 5689 5687 5685 5684 5682 5681
5759 5757 5756 5755 5754 5752 5751 5749 5747 5746 5744 5743 5743 5742 5741 5738 5735 5732 5732 5729 5726 5723 5721 5719 5717 5716 5713 5709 5707 5707 5704 5703 5700 5699 5696 5692 5689 5687 5684 5681 5678 5676 5674
5753 5751 5750 5749 5748 5748 5744 5741 5739 5740 5739 5738 5737 5737 5736 5734 5730 5726 5724 5722 5720 5717 5716 5714 5713 5710 5707 5707 5704 5702 5700 5696 5692 5693 5689 5688 5687 5685 5682 5679 5674 5671 5668
5747 5745 5744 5743 5742 5740 5736 5734 5732 5733 5734 5733 5732 5731 5731 5732 5727 5724 5719 5714 5712 5711 5709 5709 5708 5706 5704 5702 5699 5696 5693 5690 5688 5688 5684 5682 5681 5679 5676 5671 5667 5664 5662
5739 5738 5737 5737 5736 5735 5730 5728 5726 5726 5728 5728 5727 5725 5724 5723 5721 5717 5715 5711 5710 5708 5704 5703 5703 5702 5700 5697 5694 5691 5688 5685 5683 5681 5679 5675 5675 5672 5671 5666 5660 5658 5655
5732 5731 5731 5730 5729 5728 5724 5721 5718 5721 5722 5721 5721 5720 5718 5716 5711 5708 5707 5706 5704 5703 5699 5697 5695 5693 5690 5688 5686 5685 5682 5680 5677 5676 5673 5671 5669 5666 5665 5662 5657 5652 5649
5725 5724 5724 5724 5722 5720 5716 5713 5711 5715 5715 5715 5714 5712 5709 5707 5703 5699 5700 5699 5696 5696 5695 5691 5687 5685 5684 5681 5678 5677 5678 5675 5673 5670 5668 5664 5663 5660 5657 5657 5654 5649 5645